Location: Saint-Palais-sur-Mer
(45.6429°N, 1.0859°W)
Time: 00:33:32
(UTC+01:00)

S-56A Canister/Altair - Pass Details

Date: 12 February 2026
Orbit: 633 x 2484 km, 38.9° (Epoch: 11 March)

Event Time Altitude Azimuth Distance (km) Brightness Sun altitude
Exits shadow 07:13:09 12° 270° (W) 3,970 10.5 -10.7°
Maximum altitude 07:23:12 44° 205° (SSW) 2,814 10.3 -8.9°
Drops below altitude 10° 07:36:36 10° 140° (SE) 5,121 12.6 -6.6°
Sets 07:40:57 0° 135° (SE) 6,145 13.3 -5.9°
